View from above orbital plane
|
View from above satellite
|
Ground track
|
The orbit data is extracted from the following two-line orbital elements,
1 00694U 63047A 21104.30986506 .00000266 00000-0 18956-4 0 9991
2 00694 30.3613 34.0751 0585237 279.3072 74.1839 14.02778120879375
Epoch (UTC): | 14 April 2021 07:26:12 |
Eccentricity: | 0.0585237 |
inclination: | 30.3613° |
perigee height: | 459 km |
apogee height: | 1309 km |
right ascension of ascending node: | 34.0751° |
argument of perigee: | 279.3072° |
revolutions per day: | 14.02778120 |
mean anomaly at epoch: | 74.1839° |
orbit number at epoch: | 87937 |
The dashed part of the orbit path shows where the satellite is in the earth's shadow,
|
|